Terug naar catalogus

KUIPER-00639

ActiefCommunicatieVLEO
NORAD 69786·PAYLOAD·🇺🇸 United States

Gelanceerd Jul 2, 2026 vanaf Cape Canaveral Space Force Station

Loading…

Volgende Passages (komende 24 uur)

TLE

VersSource: CelesTrak SupGP

Epoch: Sep 14, 2026, 20:58 UTC

1 69786C 26151Z   26257.87428241 -.01084500  00000+0 -10400+0 0  2579
2 69786  51.8951 246.9160 0010314  25.4949 203.5213 14.93678988    17

Volg KUIPER-00639 in realtime met AllMySat

Download on the App Store